| time (UTC) | temp F | wind direction | speed MPH | gust MPH | rain 1hr in | rain 24hr in | rain mn in | humidity % | barometer mb |
| 20260505121245 | 61 | 58 | 1.0 | 11.0 | 0.00 | 0.04 | 0.01 | 83 | 999.4 |
| 20260505120745 | 62 | 42 | 0.0 | 11.0 | 0.00 | 0.04 | 0.01 | 85 | 999.3 |
| 20260505120241 | 62 | 34 | 0.0 | 0.0 | 0.00 | 0.04 | 0.01 | 86 | 999.1 |
| 20260505115740 | 62 | 34 | 0.0 | 1.0 | 0.00 | 0.04 | 0.01 | 85 | 999.2 |
| 20260505115235 | 62 | 58 | 0.0 | 1.0 | 0.00 | 0.04 | 0.01 | 86 | 999.0 |
| 20260505114735 | 62 | 55 | 0.0 | 1.0 | 0.00 | 0.04 | 0.01 | 86 | 998.8 |
| 20260505114456 | 62 | 49 | 0.0 | 1.0 | 0.01 | 0.04 | 0.01 | 86 | 998.9 |
| 20260505113733 | 62 | 49 | 0.0 | 1.0 | 0.01 | 0.04 | 0.01 | 86 | 998.8 |
| 20260505113233 | 62 | 50 | 0.0 | 1.0 | 0.01 | 0.04 | 0.01 | 86 | 998.7 |
| 20260505112736 | 62 | 44 | 0.0 | 2.0 | 0.01 | 0.04 | 0.01 | 87 | 998.8 |
| 20260505112458 | 62 | 62 | 1.0 | 6.0 | 0.01 | 0.04 | 0.01 | 87 | 998.6 |
| 20260505111732 | 62 | 44 | 1.0 | 6.0 | 0.01 | 0.04 | 0.01 | 87 | 998.7 |
| 20260505111232 | 61 | 31 | 0.0 | 4.0 | 0.01 | 0.04 | 0.01 | 87 | 998.7 |
| 20260505110731 | 61 | 44 | 0.0 | 0.0 | 0.01 | 0.04 | 0.01 | 87 | 998.6 |
| 20260505110232 | 62 | 58 | 0.0 | 0.0 | 0.01 | 0.04 | 0.01 | 86 | 998.5 |
| 20260505102204 | 64 | 44 | 0.0 | 5.0 | 0.00 | 0.03 | 0.00 | 80 | 998.1 |
| 20260505101705 | 65 | 134 | 0.0 | 4.0 | 0.00 | 0.03 | 0.00 | 79 | 997.9 |
| 20260505101205 | 65 | 144 | 0.0 | 4.0 | 0.00 | 0.03 | 0.00 | 79 | 997.2 |
| 20260505100705 | 65 | 147 | 0.0 | 8.0 | 0.00 | 0.03 | 0.00 | 79 | 997.0 |
| 20260505100205 | 65 | 137 | 1.0 | 8.0 | 0.00 | 0.03 | 0.00 | 79 | 997.0 |
| 20260505095704 | 65 | 142 | 1.0 | 8.0 | 0.00 | 0.03 | 0.00 | 80 | 997.0 |
| 20260505095204 | 64 | 176 | 1.0 | 9.0 | 0.00 | 0.03 | 0.00 | 81 | 997.0 |
| 20260505094704 | 64 | 156 | 1.0 | 9.0 | 0.00 | 0.03 | 0.00 | 81 | 997.0 |
| 20260505094204 | 64 | 129 | 0.0 | 7.0 | 0.00 | 0.03 | 0.00 | 81 | 997.3 |
| 20260505093704 | 64 | 161 | 0.0 | 8.0 | 0.00 | 0.03 | 0.00 | 81 | 997.4 |
| 20260505093204 | 64 | 142 | 1.0 | 8.0 | 0.00 | 0.03 | 0.00 | 81 | 997.4 |
| 20260505092923 | 64 | 133 | 0.0 | 5.0 | 0.00 | 0.03 | 0.00 | 80 | 997.3 |
| 20260505092911 | 64 | 141 | 0.0 | 5.0 | 0.00 | 0.03 | 0.00 | 80 | 997.4 |
| 20260505091704 | 64 | 140 | 0.0 | 4.0 | 0.00 | 0.03 | 0.00 | 80 | 997.4 |
| 20260505091204 | 64 | 165 | 0.0 | 4.0 | 0.00 | 0.03 | 0.00 | 79 | 997.5 |
| 20260505090704 | 64 | 124 | 0.0 | 4.0 | 0.00 | 0.03 | 0.00 | 78 | 997.5 |
| 20260505090201 | 64 | 92 | 0.0 | 4.0 | 0.00 | 0.03 | 0.00 | 78 | 997.5 |
| 20260505085916 | 64 | 141 | 0.0 | 1.0 | 0.00 | 0.03 | 0.00 | 77 | 997.4 |
| 20260505085149 | 64 | 142 | 0.0 | 4.0 | 0.00 | 0.03 | 0.00 | 77 | 997.4 |
| 20260505084642 | 64 | 142 | 0.0 | 4.0 | 0.00 | 0.03 | 0.00 | 76 | 997.4 |
| 20260505084143 | 64 | 125 | 0.0 | 1.0 | 0.00 | 0.03 | 0.00 | 76 | 997.4 |
| 20260505083859 | 64 | 126 | 0.0 | 2.0 | 0.00 | 0.03 | 0.00 | 77 | 997.4 |
| 20260505083406 | 64 | 142 | 0.0 | 2.0 | 0.00 | 0.03 | 0.00 | 77 | 997.3 |
| 20260505082642 | 64 | 123 | 0.0 | 0.0 | 0.00 | 0.03 | 0.00 | 78 | 997.3 |
| 20260505082402 | 64 | 123 | 0.0 | 3.0 | 0.00 | 0.03 | 0.00 | 78 | 997.2 |
| 20260505081641 | 63 | 123 | 0.0 | 4.0 | 0.00 | 0.03 | 0.00 | 78 | 997.1 |
| 20260505081138 | 63 | 126 | 0.0 | 4.0 | 0.00 | 0.03 | 0.00 | 78 | 997.1 |
| 20260505080637 | 63 | 111 | 0.0 | 3.0 | 0.00 | 0.03 | 0.00 | 78 | 997.1 |
| 20260505080135 | 63 | 150 | 0.0 | 0.0 | 0.00 | 0.03 | 0.00 | 78 | 997.2 |
| 20260505075633 | 63 | 150 | 0.0 | 0.0 | 0.00 | 0.03 | 0.00 | 78 | 997.0 |
| 20260505075354 | 63 | 150 | 0.0 | 1.0 | 0.00 | 0.03 | 0.00 | 77 | 997.1 |
| 20260505075115 | 63 | 152 | 0.0 | 3.0 | 0.00 | 0.03 | 0.00 | 78 | 997.2 |
| 20260505074354 | 63 | 153 | 1.0 | 4.0 | 0.00 | 0.03 | 0.00 | 78 | 997.2 |
| 20260505073633 | 63 | 131 | 0.0 | 4.0 | 0.00 | 0.03 | 0.00 | 78 | 997.2 |
| 20260505073132 | 63 | 132 | 0.0 | 8.0 | 0.00 | 0.03 | 0.00 | 78 | 997.2 |
| 20260505072855 | 63 | 128 | 0.0 | 8.0 | 0.00 | 0.03 | 0.00 | 78 | 997.4 |
| 20260505072132 | 63 | 128 | 0.0 | 8.0 | 0.00 | 0.03 | 0.00 | 78 | 997.6 |
| 20260505071646 | 63 | 119 | 1.0 | 8.0 | 0.00 | 0.03 | 0.00 | 78 | 997.9 |
| 20260505071403 | 63 | 142 | 1.0 | 5.0 | 0.00 | 0.03 | 0.00 | 78 | 997.9 |
| 20260505070632 | 63 | 107 | 1.0 | 4.0 | 0.00 | 0.03 | 0.00 | 79 | 997.8 |
| 20260505070118 | 63 | 106 | 0.0 | 7.0 | 0.00 | 0.03 | 0.00 | 78 | 998.0 |
| 20260505065613 | 63 | 94 | 0.0 | 3.0 | 0.00 | 0.03 | 0.00 | 78 | 998.1 |
| 20260505065113 | 64 | 121 | 0.0 | 4.0 | 0.00 | 0.03 | 0.00 | 78 | 998.3 |
| 20260505064610 | 64 | 126 | 0.0 | 5.0 | 0.00 | 0.03 | 0.00 | 77 | 998.3 |
| 20260505064110 | 64 | 139 | 0.0 | 5.0 | 0.00 | 0.03 | 0.00 | 76 | 998.2 |
| 20260505063616 | 65 | 164 | 0.0 | 3.0 | 0.00 | 0.03 | 0.00 | 75 | 998.7 |
| 20260505063116 | 65 | 138 | 0.0 | 3.0 | 0.00 | 0.03 | 0.00 | 74 | 998.4 |
| 20260505062610 | 66 | 153 | 0.0 | 2.0 | 0.00 | 0.03 | 0.00 | 73 | 998.5 |
| 20260505062111 | 66 | 154 | 1.0 | 7.0 | 0.00 | 0.03 | 0.00 | 71 | 998.6 |
| 20260505061608 | 67 | 157 | 1.0 | 7.0 | 0.00 | 0.03 | 0.00 | 69 | 999.0 |
| 20260505061109 | 66 | 126 | 1.0 | 7.0 | 0.00 | 0.03 | 0.00 | 68 | 998.7 |
| 20260505060608 | 65 | 71 | 0.0 | 6.0 | 0.00 | 0.03 | 0.00 | 72 | 998.7 |
| 20260505060109 | 65 | 67 | 0.0 | 4.0 | 0.00 | 0.03 | 0.00 | 72 | 999.0 |
| 20260505055828 | 66 | 67 | 1.0 | 16.0 | 0.00 | 0.03 | 0.00 | 71 | 999.2 |
| 20260505055106 | 66 | 61 | 1.0 | 16.0 | 0.00 | 0.03 | 0.00 | 70 | 998.9 |
| 20260505054607 | 65 | 46 | 0.0 | 0.0 | 0.00 | 0.03 | 0.00 | 72 | 999.5 |
| 20260505054107 | 65 | 46 | 0.0 | 4.0 | 0.00 | 0.03 | 0.00 | 72 | 999.8 |
| 20260505053606 | 65 | 46 | 0.0 | 4.0 | 0.00 | 0.03 | 0.00 | 71 | 1000.0 |
| 20260505053107 | 65 | 53 | 0.0 | 1.0 | 0.00 | 0.03 | 0.00 | 72 | 999.9 |
| 20260505053048 | 65 | 39 | 0.0 | 4.0 | 0.00 | 0.03 | 0.00 | 72 | 1000.0 |
| 20260505052105 | 66 | 21 | 0.0 | 4.0 | 0.00 | 0.03 | 0.00 | 75 | 1000.1 |
| 20260505051604 | 66 | 67 | 0.0 | 4.0 | 0.00 | 0.03 | 0.00 | 74 | 1000.1 |
| 20260505051102 | 66 | 316 | 1.0 | 5.0 | 0.00 | 0.03 | 0.00 | 76 | 1000.1 |
| 20260505050603 | 66 | 317 | 1.0 | 7.0 | 0.00 | 0.03 | 0.00 | 80 | 999.9 |
| 20260505041558 | 67 | 186 | 0.0 | 1.0 | 0.03 | 0.03 | 0.03 | 77 | 998.5 |
| 20260505041058 | 68 | 186 | 0.0 | 4.0 | 0.03 | 0.03 | 0.03 | 76 | 997.9 |
| 20260505040559 | 68 | 188 | 0.0 | 4.0 | 0.03 | 0.03 | 0.03 | 74 | 997.9 |
| 20260505040058 | 69 | 144 | 0.0 | 1.0 | 0.03 | 0.03 | 0.03 | 73 | 997.6 |
| 20260505035823 | 69 | 161 | 1.0 | 9.0 | 0.02 | 0.02 | 0.02 | 71 | 997.8 |
| 20260505035058 | 70 | 161 | 1.0 | 9.0 | 0.00 | 0.00 | 0.00 | 68 | 998.0 |
| 20260505034558 | 70 | 143 | 1.0 | 10.0 | 0.00 | 0.00 | 0.00 | 67 | 997.7 |
| 20260505034059 | 71 | 176 | 1.0 | 10.0 | 0.00 | 0.00 | 0.00 | 65 | 997.6 |
| 20260505033601 | 71 | 144 | 1.0 | 9.0 | 0.00 | 0.00 | 0.00 | 65 | 997.7 |
| 20260505033052 | 71 | 142 | 1.0 | 6.0 | 0.00 | 0.00 | 0.00 | 65 | 997.8 |
| 20260505032558 | 71 | 157 | 1.0 | 5.0 | 0.00 | 0.00 | 0.00 | 65 | 997.9 |
| 20260505032053 | 71 | 147 | 0.0 | 5.0 | 0.00 | 0.00 | 0.00 | 64 | 998.1 |
| 20260505031548 | 71 | 155 | 0.0 | 4.0 | 0.00 | 0.00 | 0.00 | 64 | 998.2 |
| 20260505031046 | 71 | 159 | 0.0 | 8.0 | 0.00 | 0.00 | 0.00 | 64 | 998.0 |
| 20260505030546 | 71 | 147 | 1.0 | 9.0 | 0.00 | 0.00 | 0.00 | 64 | 998.0 |
| 20260505030046 | 71 | 168 | 1.0 | 9.0 | 0.00 | 0.00 | 0.00 | 64 | 998.3 |
| 20260505025542 | 71 | 165 | 0.0 | 9.0 | 0.00 | 0.00 | 0.00 | 65 | 998.4 |
| 20260505025045 | 71 | 140 | 0.0 | 3.0 | 0.00 | 0.00 | 0.00 | 65 | 998.4 |
| 20260505024542 | 71 | 165 | 0.0 | 3.0 | 0.00 | 0.00 | 0.00 | 65 | 998.5 |
| 20260505024309 | 71 | 160 | 0.0 | 4.0 | 0.00 | 0.00 | 0.00 | 65 | 998.5 |
| 20260505023539 | 71 | 171 | 1.0 | 6.0 | 0.00 | 0.00 | 0.00 | 65 | 998.3 |
| 20260505023037 | 71 | 178 | 1.0 | 6.0 | 0.00 | 0.00 | 0.00 | 66 | 998.0 |
| 20260505022802 | 72 | 173 | 0.0 | 6.0 | 0.00 | 0.00 | 0.00 | 65 | 998.1 |
| 20260505022037 | 72 | 189 | 1.0 | 5.0 | 0.00 | 0.00 | 0.00 | 66 | 998.1 |
| 20260505021536 | 72 | 163 | 1.0 | 5.0 | 0.00 | 0.00 | 0.00 | 65 | 998.0 |
| 20260505021044 | 73 | 178 | 0.0 | 5.0 | 0.00 | 0.00 | 0.00 | 64 | 997.9 |
| 20260505021036 | 72 | 177 | 0.0 | 5.0 | 0.00 | 0.00 | 0.00 | 65 | 997.9 |
| 20260505020034 | 73 | 171 | 0.0 | 7.0 | 0.00 | 0.00 | 0.00 | 64 | 998.1 |
| 20260505015532 | 73 | 172 | 0.0 | 7.0 | 0.00 | 0.00 | 0.00 | 64 | 998.0 |
| 20260505015251 | 73 | 180 | 0.0 | 6.0 | 0.00 | 0.00 | 0.00 | 64 | 998.0 |
| 20260505014526 | 73 | 177 | 0.0 | 1.0 | 0.00 | 0.00 | 0.00 | 64 | 997.9 |
| 20260505014019 | 73 | 176 | 0.0 | 1.0 | 0.00 | 0.00 | 0.00 | 65 | 997.8 |
| 20260505013520 | 73 | 155 | 0.0 | 1.0 | 0.00 | 0.00 | 0.00 | 65 | 997.8 |
| 20260505013019 | 73 | 170 | 0.0 | 6.0 | 0.00 | 0.00 | 0.00 | 64 | 997.7 |
| 20260505012518 | 74 | 170 | 1.0 | 9.0 | 0.00 | 0.00 | 0.00 | 64 | 997.7 |
| 20260505012017 | 74 | 161 | 0.0 | 9.0 | 0.00 | 0.00 | 0.00 | 63 | 997.6 |
| 20260505011517 | 74 | 161 | 0.0 | 1.0 | 0.00 | 0.00 | 0.00 | 63 | 997.6 |
| 20260505011014 | 74 | 161 | 0.0 | 1.0 | 0.00 | 0.00 | 0.00 | 62 | 997.5 |
| 20260505010737 | 74 | 165 | 0.0 | 0.0 | 0.00 | 0.00 | 0.00 | 62 | 997.6 |
| 20260505010012 | 75 | 164 | 0.0 | 0.0 | 0.00 | 0.00 | 0.00 | 61 | 997.5 |
| 20260505005510 | 75 | 169 | 0.0 | 0.0 | 0.00 | 0.00 | 0.00 | 61 | 997.6 |
| 20260505005011 | 76 | 170 | 0.0 | 0.0 | 0.00 | 0.00 | 0.00 | 60 | 997.6 |
| 20260505004730 | 76 | 171 | 0.0 | 4.0 | 0.00 | 0.00 | 0.00 | 59 | 997.4 |
| 20260505004228 | 76 | 172 | 1.0 | 12.0 | 0.00 | 0.00 | 0.00 | 59 | 997.4 |
| 20260505003508 | 76 | 155 | 1.0 | 12.0 | 0.00 | 0.00 | 0.00 | 58 | 997.4 |
| 20260505003006 | 76 | 163 | 1.0 | 9.0 | 0.00 | 0.00 | 0.00 | 58 | 997.4 |
| 20260505002506 | 76 | 182 | 1.0 | 11.0 | 0.00 | 0.00 | 0.00 | 58 | 997.4 |
| 20260505002006 | 77 | 163 | 1.0 | 11.0 | 0.00 | 0.00 | 0.00 | 58 | 997.4 |
| 20260505001505 | 77 | 154 | 1.0 | 10.0 | 0.00 | 0.00 | 0.00 | 57 | 997.5 |
| 20260505001004 | 77 | 160 | 1.0 | 11.0 | 0.00 | 0.00 | 0.00 | 58 | 997.4 |
| 20260505000722 | 77 | 168 | 1.0 | 11.0 | 0.00 | 0.00 | 0.00 | 58 | 997.7 |
| 20260505000001 | 77 | 184 | 0.0 | 9.0 | 0.00 | 0.00 | 0.00 | 58 | 997.8 |
| 20260504235456 | 77 | 183 | 0.0 | 9.0 | 0.00 | 0.00 | 0.00 | 58 | 997.7 |
| 20260504234949 | 77 | 179 | 0.0 | 3.0 | 0.00 | 0.00 | 0.00 | 58 | 997.8 |
| 20260504234444 | 77 | 193 | 0.0 | 5.0 | 0.00 | 0.00 | 0.00 | 58 | 997.8 |
| 20260504233937 | 77 | 184 | 1.0 | 10.0 | 0.00 | 0.00 | 0.00 | 57 | 997.7 |
| 20260504233441 | 77 | 185 | 1.0 | 10.0 | 0.00 | 0.00 | 0.00 | 57 | 997.8 |
| 20260504232937 | 78 | 139 | 1.0 | 7.0 | 0.00 | 0.00 | 0.00 | 57 | 997.8 |
| 20260504232436 | 78 | 268 | 1.0 | 7.0 | 0.00 | 0.00 | 0.00 | 57 | 997.8 |
| 20260504231936 | 77 | 163 | 0.0 | 6.0 | 0.00 | 0.00 | 0.00 | 56 | 997.9 |
| 20260504231435 | 78 | 168 | 1.0 | 6.0 | 0.00 | 0.00 | 0.00 | 56 | 998.0 |
| 20260504230936 | 78 | 162 | 1.0 | 7.0 | 0.00 | 0.00 | 0.00 | 56 | 997.9 |
| 20260504230434 | 78 | 155 | 1.0 | 8.0 | 0.00 | 0.00 | 0.00 | 56 | 997.9 |
| 20260504230156 | 78 | 181 | 1.0 | 15.0 | 0.00 | 0.00 | 0.00 | 56 | 997.9 |
| 20260504225432 | 78 | 188 | 1.0 | 15.0 | 0.00 | 0.00 | 0.00 | 57 | 997.9 |
| 20260504225153 | 78 | 173 | 1.0 | 11.0 | 0.00 | 0.00 | 0.00 | 56 | 997.9 |
| 20260504224651 | 78 | 156 | 1.0 | 11.0 | 0.00 | 0.00 | 0.00 | 57 | 997.9 |
| 20260504224412 | 78 | 150 | 1.0 | 8.0 | 0.00 | 0.00 | 0.00 | 56 | 997.9 |
| 20260504223432 | 78 | 184 | 2.0 | 8.0 | 0.00 | 0.00 | 0.00 | 55 | 997.9 |
| 20260504222932 | 78 | 199 | 1.0 | 10.0 | 0.00 | 0.00 | 0.00 | 55 | 997.9 |
| 20260504222650 | 79 | 175 | 1.0 | 14.0 | 0.00 | 0.00 | 0.00 | 55 | 997.9 |
| 20260504221932 | 79 | 197 | 1.0 | 14.0 | 0.00 | 0.00 | 0.00 | 54 | 997.9 |
| 20260504221651 | 79 | 157 | 2.0 | 18.0 | 0.00 | 0.00 | 0.00 | 54 | 997.7 |
| 20260504220932 | 79 | 175 | 2.0 | 18.0 | 0.00 | 0.00 | 0.00 | 53 | 997.7 |
| 20260504220432 | 80 | 223 | 2.0 | 14.0 | 0.00 | 0.00 | 0.00 | 53 | 997.6 |
| 20260504215931 | 80 | 141 | 1.0 | 12.0 | 0.00 | 0.00 | 0.00 | 52 | 997.7 |
| 20260504215431 | 80 | 159 | 1.0 | 11.0 | 0.00 | 0.00 | 0.00 | 52 | 997.7 |
| 20260504214931 | 80 | 170 | 2.0 | 11.0 | 0.00 | 0.00 | 0.00 | 52 | 997.7 |
| 20260504214919 | 80 | 157 | 3.0 | 13.0 | 0.00 | 0.00 | 0.00 | 52 | 997.9 |
| 20260504213931 | 80 | 186 | 3.0 | 17.0 | 0.00 | 0.00 | 0.00 | 51 | 997.7 |
| 20260504213432 | 80 | 150 | 3.0 | 17.0 | 0.00 | 0.00 | 0.00 | 51 | 997.9 |
| 20260504212931 | 81 | 169 | 2.0 | 15.0 | 0.00 | 0.00 | 0.00 | 51 | 998.0 |
| 20260504212432 | 81 | 155 | 2.0 | 9.0 | 0.00 | 0.00 | 0.00 | 51 | 997.8 |
| 20260504211932 | 81 | 194 | 1.0 | 9.0 | 0.00 | 0.00 | 0.00 | 51 | 998.0 |
| 20260504211432 | 81 | 164 | 1.0 | 12.0 | 0.00 | 0.00 | 0.00 | 51 | 998.0 |
| 20260504210931 | 81 | 188 | 1.0 | 12.0 | 0.00 | 0.00 | 0.00 | 51 | 997.9 |
| 20260504210432 | 82 | 169 | 2.0 | 13.0 | 0.00 | 0.00 | 0.00 | 50 | 998.0 |
| 20260504210156 | 82 | 179 | 2.0 | 13.0 | 0.00 | 0.00 | 0.00 | 49 | 998.0 |
| 20260504205432 | 82 | 157 | 1.0 | 9.0 | 0.00 | 0.00 | 0.00 | 51 | 998.0 |
| 20260504204931 | 82 | 178 | 1.0 | 9.0 | 0.00 | 0.00 | 0.00 | 51 | 998.1 |
| 20260504204429 | 82 | 187 | 1.0 | 13.0 | 0.00 | 0.00 | 0.00 | 49 | 998.1 |
| 20260504203923 | 82 | 164 | 1.0 | 13.0 | 0.00 | 0.00 | 0.00 | 50 | 998.3 |
| 20260504203416 | 82 | 187 | 1.0 | 8.0 | 0.00 | 0.00 | 0.00 | 50 | 998.4 |
| 20260504202915 | 82 | 176 | 1.0 | 11.0 | 0.00 | 0.00 | 0.00 | 48 | 998.4 |
| 20260504202637 | 82 | 175 | 1.0 | 11.0 | 0.00 | 0.00 | 0.00 | 48 | 998.5 |
| 20260504201915 | 82 | 155 | 1.0 | 11.0 | 0.00 | 0.00 | 0.00 | 49 | 998.6 |
| 20260504201416 | 82 | 181 | 2.0 | 16.0 | 0.00 | 0.00 | 0.00 | 49 | 998.6 |
| 20260504201133 | 82 | 175 | 1.0 | 13.0 | 0.00 | 0.00 | 0.00 | 47 | 998.7 |
| 20260504201114 | 82 | 141 | 2.0 | 16.0 | 0.00 | 0.00 | 0.00 | 47 | 998.7 |
| 20260504195916 | 82 | 149 | 2.0 | 13.0 | 0.00 | 0.00 | 0.00 | 49 | 998.7 |
| 20260504195415 | 82 | 181 | 2.0 | 13.0 | 0.00 | 0.00 | 0.00 | 46 | 998.7 |
| 20260504194914 | 83 | 180 | 1.0 | 12.0 | 0.00 | 0.00 | 0.00 | 46 | 998.9 |
| 20260504194634 | 83 | 233 | 1.0 | 19.0 | 0.00 | 0.00 | 0.00 | 46 | 998.9 |
| 20260504193914 | 83 | 177 | 2.0 | 19.0 | 0.00 | 0.00 | 0.00 | 45 | 998.9 |
| 20260504193412 | 83 | 149 | 2.0 | 13.0 | 0.00 | 0.00 | 0.00 | 46 | 999.0 |
| 20260504192910 | 83 | 175 | 1.0 | 14.0 | 0.00 | 0.00 | 0.00 | 46 | 999.0 |
| 20260504192407 | 83 | 180 | 1.0 | 14.0 | 0.00 | 0.00 | 0.00 | 47 | 999.0 |
| 20260504191908 | 83 | 182 | 1.0 | 14.0 | 0.00 | 0.00 | 0.00 | 46 | 999.0 |
| 20260504191855 | 83 | 161 | 1.0 | 14.0 | 0.00 | 0.00 | 0.00 | 46 | 999.1 |
| 20260504190907 | 83 | 186 | 2.0 | 17.0 | 0.00 | 0.00 | 0.00 | 46 | 999.0 |
| 20260504190846 | 82 | 169 | 2.0 | 17.0 | 0.00 | 0.00 | 0.00 | 47 | 999.0 |
| 20260504185905 | 82 | 184 | 1.0 | 16.0 | 0.00 | 0.00 | 0.00 | 46 | 999.0 |
| 20260504185406 | 83 | 153 | 2.0 | 18.0 | 0.00 | 0.00 | 0.00 | 45 | 999.0 |
| 20260504184905 | 83 | 136 | 2.0 | 18.0 | 0.00 | 0.00 | 0.00 | 45 | 999.0 |
| 20260504184406 | 83 | 116 | 1.0 | 12.0 | 0.00 | 0.00 | 0.00 | 46 | 999.1 |
| 20260504184131 | 83 | 164 | 1.0 | 9.0 | 0.00 | 0.00 | 0.00 | 44 | 999.0 |
| 20260504183406 | 83 | 178 | 1.0 | 9.0 | 0.00 | 0.00 | 0.00 | 45 | 999.1 |
| 20260504182905 | 82 | 191 | 1.0 | 7.0 | 0.00 | 0.00 | 0.00 | 45 | 999.1 |
| 20260504182406 | 82 | 165 | 0.0 | 7.0 | 0.00 | 0.00 | 0.00 | 45 | 999.1 |
| 20260504181905 | 82 | 208 | 1.0 | 17.0 | 0.00 | 0.00 | 0.00 | 47 | 999.1 |
| 20260504181625 | 81 | 235 | 2.0 | 17.0 | 0.00 | 0.00 | 0.00 | 46 | 999.2 |
| 20260504180906 | 81 | 191 | 2.0 | 13.0 | 0.00 | 0.00 | 0.00 | 45 | 999.2 |
| 20260504180627 | 81 | 159 | 2.0 | 13.0 | 0.00 | 0.00 | 0.00 | 44 | 999.3 |
| 20260504175906 | 82 | 144 | 1.0 | 12.0 | 0.00 | 0.00 | 0.00 | 44 | 999.3 |
| 20260504175405 | 81 | 169 | 1.0 | 12.0 | 0.00 | 0.00 | 0.00 | 46 | 999.5 |
| 20260504174906 | 81 | 173 | 1.0 | 10.0 | 0.00 | 0.00 | 0.00 | 45 | 999.4 |
| 20260504174405 | 81 | 204 | 1.0 | 11.0 | 0.00 | 0.00 | 0.00 | 45 | 999.5 |
| 20260504173906 | 81 | 244 | 1.0 | 11.0 | 0.00 | 0.00 | 0.00 | 47 | 999.6 |
| 20260504173406 | 80 | 184 | 1.0 | 8.0 | 0.00 | 0.00 | 0.00 | 47 | 999.7 |
| 20260504172906 | 80 | 174 | 1.0 | 10.0 | 0.00 | 0.00 | 0.00 | 46 | 999.7 |
| 20260504172406 | 80 | 251 | 1.0 | 10.0 | 0.00 | 0.00 | 0.00 | 47 | 999.9 |
| 20260504171905 | 80 | 173 | 1.0 | 7.0 | 0.00 | 0.00 | 0.00 | 48 | 999.8 |
| 20260504171405 | 79 | 175 | 1.0 | 11.0 | 0.00 | 0.00 | 0.00 | 47 | 999.8 |
| 20260504170905 | 79 | 157 | 1.0 | 11.0 | 0.00 | 0.00 | 0.00 | 47 | 1000.0 |
| 20260504170406 | 78 | 199 | 1.0 | 11.0 | 0.00 | 0.00 | 0.00 | 47 | 1000.0 |
| 20260504160404 | 75 | 169 | 1.0 | 10.0 | 0.00 | 0.00 | 0.00 | 49 | 1000.7 |
| 20260504150900 | 73 | 191 | 1.0 | 17.0 | 0.00 | 0.00 | 0.00 | 52 | 1001.2 |
| 20260504150358 | 73 | 216 | 1.0 | 11.0 | 0.00 | 0.00 | 0.00 | 51 | 1001.2 |
| 20260504140837 | 69 | 221 | 0.0 | 5.0 | 0.00 | 0.00 | 0.00 | 56 | 1001.5 |
| 20260504140337 | 69 | 277 | 0.0 | 5.0 | 0.00 | 0.00 | 0.00 | 55 | 1001.5 |
| 20260504130332 | 64 | 171 | 0.0 | 7.0 | 0.00 | 0.00 | 0.00 | 62 | 1002.1 |